Oelwein, IA

4:22 PM CDT on August 20, 2017 (GMT -0500)
Oelwein Municipal

Weather History for KOLZ - October, 2012

Change the Weather History Date:

Saturday, October 6, 2012

  Actual Average Record
Temperature  
Mean Temperature 34 °F -  
Max Temperature 42 °F 63 °F 90 °F (1963)
Min Temperature 26 °F 42 °F 16 °F (1952)
Degree Days  
Heating Degree Days 31    
Moisture  
Dew Point 22 °F    
Average Humidity 59    
Maximum Humidity 80    
Minimum Humidity 42    
Precipitation  
Precipitation 0.00 in - - ()
Sea Level Pressure  
Sea Level Pressure 30.21 in    
Wind  
Wind Speed 8 mph (NW)    
Max Wind Speed 17 mph    
Max Gust Speed 22 mph    
Visibility 10 miles    
Events      
Averages and records for this station are not official NWS values.
T = Trace of Precipitation, MM = Missing Value Source: NWS Daily Summary

Daily Weather History Graph

Daily Weather History Graph

Search for Another Location

Airport or City:

Trip Planner

Search our weather history database for the weather conditions in past years. The results will help you decide how hot, cold, wet, or windy it might be!

Date:

Astronomy

Oct. 06, 2012 Rise Set
Actual Time 7:11 AM CDT 6:39 PM CDT
Civil Twilight 6:43 AM CDT 7:07 PM CDT
Nautical Twilight 6:10 AM CDT 7:40 PM CDT
Astronomical Twilight 5:37 AM CDT 8:13 PM CDT
Moon 10:49 PM CDT (10/6) 1:12 PM CDT (10/6)
Length of Visible Light 12h 24m
Length of Day
11h 28m
Waning Gibbous, 65% of the Moon is Illuminated
Oct 6
Waning Gibbous
Oct 8
Last Quarter
Oct 15
New
Oct 21
First Quarter
Oct 29
Full

Hourly Weather History & Observations

Time (CDT) Temp. Windchill Dew Point Humidity Pressure Visibility Wind Dir Wind Speed Gust Speed Precip Events Conditions
12:14 AM 33.8 °F 27.0 °F 21.2 °F 60% 30.16 in 10.0 mi NW 8.1 mph - N/A   Clear
12:15 AM 33.8 °F 27.0 °F 21.2 °F 60% 30.16 in 10.0 mi NW 8.1 mph - N/A   Clear
12:34 AM 32.0 °F 25.6 °F 21.2 °F 64% 30.16 in 10.0 mi NW 6.9 mph - N/A   Clear
12:35 AM 32.0 °F 26.4 °F 21.2 °F 64% 30.16 in 10.0 mi WNW 5.8 mph - N/A   Clear
12:54 AM 30.2 °F 24.3 °F 21.2 °F 69% 30.15 in 10.0 mi West 5.8 mph - N/A   Clear
12:55 AM 32.0 °F 26.4 °F 21.2 °F 64% 30.15 in 10.0 mi West 5.8 mph - N/A   Clear
1:14 AM 30.2 °F 25.4 °F 21.2 °F 69% 30.15 in 10.0 mi West 4.6 mph - N/A   Clear
1:15 AM 30.2 °F 25.4 °F 21.2 °F 69% 30.15 in 10.0 mi West 4.6 mph - N/A   Clear
1:34 AM 28.4 °F 22.2 °F 19.4 °F 69% 30.15 in 10.0 mi West 5.8 mph - N/A   Clear
1:35 AM 30.2 °F 24.3 °F 21.2 °F 69% 30.15 in 10.0 mi West 5.8 mph - N/A   Clear
1:54 AM 28.4 °F 21.2 °F 21.2 °F 74% 30.16 in 10.0 mi West 6.9 mph - N/A   Clear
1:55 AM 30.2 °F 23.4 °F 21.2 °F 69% 30.16 in 10.0 mi West 6.9 mph - N/A   Clear
2:14 AM 30.2 °F 25.4 °F 21.2 °F 69% 30.16 in 10.0 mi WSW 4.6 mph - N/A   Clear
2:15 AM 30.2 °F 24.3 °F 21.2 °F 69% 30.16 in 10.0 mi WSW 5.8 mph - N/A   Clear
2:34 AM 30.2 °F 22.6 °F 21.2 °F 69% 30.16 in 10.0 mi West 8.1 mph - N/A   Clear
2:35 AM 32.0 °F 24.8 °F 23.0 °F 69% 30.16 in 10.0 mi West 8.1 mph - N/A   Clear
2:54 AM 32.0 °F 25.6 °F 21.2 °F 64% 30.16 in 10.0 mi WSW 6.9 mph - N/A   Clear
2:55 AM 32.0 °F 25.6 °F 23.0 °F 69% 30.16 in 10.0 mi WSW 6.9 mph - N/A   Clear
3:14 AM 32.0 °F 24.8 °F 21.2 °F 64% 30.16 in 10.0 mi West 8.1 mph - N/A   Clear
3:15 AM 32.0 °F 24.8 °F 23.0 °F 69% 30.16 in 10.0 mi West 8.1 mph - N/A   Clear
3:34 AM 30.2 °F 22.6 °F 21.2 °F 69% 30.16 in 10.0 mi West 8.1 mph - N/A   Clear
3:35 AM 32.0 °F 24.8 °F 21.2 °F 64% 30.16 in 10.0 mi West 8.1 mph - N/A   Clear
3:54 AM 28.4 °F 22.2 °F 21.2 °F 74% 30.16 in 10.0 mi West 5.8 mph - N/A   Clear
3:55 AM 30.2 °F 24.3 °F 21.2 °F 69% 30.16 in 10.0 mi West 5.8 mph - N/A   Clear
4:34 AM 26.6 °F 20.0 °F 19.4 °F 74% 30.16 in 10.0 mi West 5.8 mph - N/A   Clear
4:35 AM 28.4 °F 22.2 °F 21.2 °F 74% 30.16 in 10.0 mi West 5.8 mph - N/A   Clear
4:54 AM 26.6 °F 19.1 °F 19.4 °F 74% 30.16 in 10.0 mi West 6.9 mph - N/A   Clear
4:55 AM 28.4 °F 21.2 °F 21.2 °F 74% 30.16 in 10.0 mi West 6.9 mph - N/A   Clear
5:34 AM 28.4 °F 23.3 °F 21.2 °F 74% 30.17 in 10.0 mi West 4.6 mph - N/A   Clear
5:35 AM 28.4 °F 23.3 °F 21.2 °F 74% 30.17 in 10.0 mi West 4.6 mph - N/A   Clear
5:54 AM 26.6 °F 20.0 °F 21.2 °F 80% 30.17 in 10.0 mi WNW 5.8 mph - N/A   Clear
5:55 AM 28.4 °F 22.2 °F 21.2 °F 74% 30.17 in 10.0 mi WNW 5.8 mph - N/A   Clear
6:14 AM 26.6 °F 20.0 °F 21.2 °F 80% 30.18 in 10.0 mi WNW 5.8 mph - N/A   Clear
6:15 AM 28.4 °F 22.2 °F 21.2 °F 74% 30.18 in 10.0 mi WNW 5.8 mph - N/A   Clear
6:34 AM 26.6 °F - 21.2 °F 80% 30.18 in 10.0 mi Calm Calm - N/A   Clear
6:54 AM 26.6 °F 21.2 °F 21.2 °F 80% 30.18 in 10.0 mi West 4.6 mph - N/A   Clear
6:55 AM 28.4 °F 22.2 °F 21.2 °F 74% 30.18 in 10.0 mi West 5.8 mph - N/A   Clear
7:14 AM 26.6 °F 19.1 °F 21.2 °F 80% 30.18 in 10.0 mi WNW 6.9 mph - N/A   Clear
7:15 AM 26.6 °F 19.1 °F 21.2 °F 80% 30.18 in 10.0 mi WNW 6.9 mph - N/A   Clear
7:34 AM 28.4 °F 21.2 °F 23.0 °F 80% 30.18 in 10.0 mi WNW 6.9 mph - N/A   Clear
7:35 AM 28.4 °F 21.2 °F 23.0 °F 80% 30.18 in 10.0 mi WNW 6.9 mph - N/A   Clear
7:54 AM 28.4 °F 22.2 °F 23.0 °F 80% 30.19 in 10.0 mi West 5.8 mph - N/A   Clear
7:55 AM 30.2 °F 24.3 °F 23.0 °F 75% 30.19 in 10.0 mi West 5.8 mph - N/A   Clear
8:14 AM 30.2 °F 23.4 °F 24.8 °F 80% 30.20 in 10.0 mi WNW 6.9 mph - N/A   Clear
8:15 AM 32.0 °F 25.6 °F 24.8 °F 75% 30.20 in 10.0 mi WNW 6.9 mph - N/A   Clear
8:34 AM 33.8 °F 27.7 °F 24.8 °F 70% 30.21 in 10.0 mi WNW 6.9 mph - N/A   Clear
8:35 AM 32.0 °F 24.8 °F 26.6 °F 80% 30.21 in 10.0 mi WNW 8.1 mph - N/A   Clear
8:54 AM 35.6 °F 28.0 °F 26.6 °F 70% 30.22 in 10.0 mi WNW 10.4 mph - N/A   Clear
8:55 AM 33.8 °F 25.8 °F 26.6 °F 75% 30.21 in 10.0 mi WNW 10.4 mph - N/A   Clear
9:14 AM 35.6 °F 27.5 °F 24.8 °F 65% 30.22 in 10.0 mi NW 11.5 mph 17.3 mph N/A   Clear
9:15 AM 35.6 °F 27.5 °F 26.6 °F 70% 30.22 in 10.0 mi NW 11.5 mph 17.3 mph N/A   Clear
9:34 AM 35.6 °F 28.6 °F 26.6 °F 70% 30.23 in 10.0 mi NW 9.2 mph - N/A   Clear
9:35 AM 35.6 °F 29.2 °F 26.6 °F 70% 30.23 in 10.0 mi NW 8.1 mph - N/A   Clear
9:54 AM 37.4 °F 29.3 °F 24.8 °F 60% 30.24 in 10.0 mi NW 12.7 mph 18.4 mph N/A   Clear
9:55 AM 35.6 °F 27.5 °F 26.6 °F 70% 30.24 in 10.0 mi NW 11.5 mph 18.4 mph N/A   Clear
10:14 AM 37.4 °F 30.3 °F 24.8 °F 60% 30.23 in 10.0 mi NNW 10.4 mph - N/A   Clear
10:34 AM 37.4 °F 28.9 °F 24.8 °F 60% 30.24 in 10.0 mi NNW 13.8 mph 19.6 mph N/A   Clear
10:35 AM 37.4 °F 29.3 °F 26.6 °F 65% 30.24 in 10.0 mi NNW 12.7 mph 19.6 mph N/A   Clear
10:54 AM 39.2 °F 31.6 °F 24.8 °F 56% 30.24 in 10.0 mi NNW 12.7 mph 21.9 mph N/A   Clear
10:55 AM 37.4 °F 29.3 °F 24.8 °F 60% 30.24 in 10.0 mi NNW 12.7 mph 21.9 mph N/A   Clear
11:14 AM 39.2 °F 31.2 °F 24.8 °F 56% 30.24 in 10.0 mi NNW 13.8 mph 19.6 mph N/A   Clear
11:15 AM 39.2 °F 31.2 °F 24.8 °F 56% 30.24 in 10.0 mi NNW 13.8 mph 19.6 mph N/A   Clear
11:34 AM 39.2 °F 31.2 °F 24.8 °F 56% 30.23 in 10.0 mi NNW 13.8 mph 17.3 mph N/A   Clear
11:35 AM 39.2 °F 31.2 °F 24.8 °F 56% 30.24 in 10.0 mi NNW 13.8 mph 17.3 mph N/A   Clear
11:54 AM 41.0 °F 33.5 °F 24.8 °F 53% 30.23 in 10.0 mi NW 13.8 mph 18.4 mph N/A   Clear
11:55 AM 41.0 °F 33.1 °F 24.8 °F 53% 30.23 in 10.0 mi NW 15.0 mph 18.4 mph N/A   Clear
12:14 PM 41.0 °F 32.8 °F 23.0 °F 49% 30.23 in 10.0 mi NW 16.1 mph - N/A   Clear
12:15 PM 41.0 °F 33.1 °F 23.0 °F 49% 30.23 in 10.0 mi NW 15.0 mph 18.4 mph N/A   Clear
12:34 PM 41.0 °F 33.5 °F 23.0 °F 49% 30.23 in 10.0 mi NW 13.8 mph 19.6 mph N/A   Clear
12:35 PM 41.0 °F 33.9 °F 23.0 °F 49% 30.23 in 10.0 mi NW 12.7 mph 19.6 mph N/A   Clear
12:54 PM 42.8 °F 36.2 °F 21.2 °F 42% 30.23 in 10.0 mi NW 12.7 mph 20.7 mph N/A   Clear
12:55 PM 41.0 °F 34.3 °F 23.0 °F 49% 30.23 in 10.0 mi NNW 11.5 mph 20.7 mph N/A   Clear
1:14 PM 42.8 °F 35.1 °F 23.0 °F 46% 30.22 in 10.0 mi NW 16.1 mph 19.6 mph N/A   Clear
1:15 PM 41.0 °F 32.5 °F 23.0 °F 49% 30.22 in 10.0 mi NW 17.3 mph - N/A   Clear
1:34 PM 42.8 °F 35.4 °F 23.0 °F 46% 30.22 in 10.0 mi NNW 15.0 mph 20.7 mph N/A   Clear
1:35 PM 41.0 °F 33.1 °F 23.0 °F 49% 30.22 in 10.0 mi NNW 15.0 mph 20.7 mph N/A   Clear
1:54 PM 42.8 °F 37.0 °F 21.2 °F 42% 30.21 in 10.0 mi NNW 10.4 mph 20.7 mph N/A   Clear
1:55 PM 41.0 °F 34.7 °F 23.0 °F 49% 30.21 in 10.0 mi NNW 10.4 mph 20.7 mph N/A   Clear
2:14 PM 42.8 °F 35.1 °F 21.2 °F 42% 30.21 in 10.0 mi North 16.1 mph 20.7 mph N/A   Clear
2:15 PM 41.0 °F 32.8 °F 23.0 °F 49% 30.21 in 10.0 mi North 16.1 mph 20.7 mph N/A   Clear
2:34 PM 42.8 °F 36.2 °F 23.0 °F 46% 30.21 in 10.0 mi NNW 12.7 mph 18.4 mph N/A   Clear
2:35 PM 41.0 °F 33.5 °F 23.0 °F 49% 30.21 in 10.0 mi NW 13.8 mph 19.6 mph N/A   Clear
2:54 PM 42.8 °F 36.2 °F 23.0 °F 46% 30.21 in 10.0 mi NW 12.7 mph 19.6 mph N/A   Clear
2:55 PM 41.0 °F 33.9 °F 23.0 °F 49% 30.21 in 10.0 mi NW 12.7 mph 19.6 mph N/A   Clear
3:14 PM 41.0 °F 33.9 °F 24.8 °F 53% 30.21 in 10.0 mi NNW 12.7 mph 20.7 mph N/A   Clear
3:15 PM 41.0 °F 34.3 °F 24.8 °F 53% 30.21 in 10.0 mi NNW 11.5 mph 20.7 mph N/A   Clear
3:34 PM 41.0 °F 33.1 °F 21.2 °F 45% 30.21 in 10.0 mi North 15.0 mph 18.4 mph N/A   Clear
3:35 PM 41.0 °F 32.8 °F 23.0 °F 49% 30.21 in 10.0 mi North 16.1 mph - N/A   Clear
3:54 PM 41.0 °F 33.9 °F 23.0 °F 49% 30.21 in 10.0 mi NNW 12.7 mph 17.3 mph N/A   Clear
3:55 PM 41.0 °F 33.9 °F 23.0 °F 49% 30.21 in 10.0 mi NNW 12.7 mph 17.3 mph N/A   Clear
4:14 PM 41.0 °F 33.9 °F 23.0 °F 49% 30.22 in 10.0 mi NNW 12.7 mph 18.4 mph N/A   Clear
4:15 PM 41.0 °F 34.3 °F 23.0 °F 49% 30.22 in 10.0 mi NNW 11.5 mph 18.4 mph N/A   Clear
4:34 PM 41.0 °F 34.7 °F 21.2 °F 45% 30.22 in 10.0 mi NW 10.4 mph - N/A   Clear
4:35 PM 41.0 °F 34.7 °F 23.0 °F 49% 30.22 in 10.0 mi NW 10.4 mph - N/A   Clear
4:54 PM 41.0 °F 35.8 °F 21.2 °F 45% 30.22 in 10.0 mi NW 8.1 mph - N/A   Clear
4:55 PM 41.0 °F 36.4 °F 21.2 °F 45% 30.22 in 10.0 mi NW 6.9 mph - N/A   Clear
5:14 PM 41.0 °F 36.4 °F 21.2 °F 45% 30.22 in 10.0 mi NNW 6.9 mph - N/A   Clear
5:15 PM 41.0 °F 36.4 °F 21.2 °F 45% 30.22 in 10.0 mi NNW 6.9 mph - N/A   Clear
5:34 PM 41.0 °F 36.4 °F 21.2 °F 45% 30.22 in 10.0 mi North 6.9 mph - N/A   Clear
5:35 PM 41.0 °F 36.4 °F 21.2 °F 45% 30.22 in 10.0 mi NNW 6.9 mph - N/A   Clear
5:55 PM 39.2 °F 34.2 °F 21.2 °F 49% 30.22 in 10.0 mi NNW 6.9 mph - N/A   Clear
6:14 PM 39.2 °F 35.0 °F 21.2 °F 49% 30.22 in 10.0 mi NNW 5.8 mph - N/A   Clear
6:15 PM 39.2 °F 34.2 °F 21.2 °F 49% 30.22 in 10.0 mi NNW 6.9 mph - N/A   Clear
6:34 PM 39.2 °F 35.9 °F 21.2 °F 49% 30.23 in 10.0 mi NNW 4.6 mph - N/A   Clear
6:35 PM 39.2 °F 37.0 °F 21.2 °F 49% 30.23 in 10.0 mi NNW 3.5 mph - N/A   Clear
6:54 PM 39.2 °F 35.9 °F 21.2 °F 49% 30.22 in 10.0 mi NNW 4.6 mph - N/A   Clear
6:55 PM 37.4 °F 33.8 °F 21.2 °F 52% 30.22 in 10.0 mi NNW 4.6 mph - N/A   Clear
7:14 PM 39.2 °F 37.0 °F 21.2 °F 49% 30.23 in 10.0 mi NNW 3.5 mph - N/A   Clear
7:15 PM 37.4 °F 34.9 °F 21.2 °F 52% 30.23 in 10.0 mi NNW 3.5 mph - N/A   Clear
7:34 PM 39.2 °F 35.9 °F 19.4 °F 45% 30.23 in 10.0 mi NNW 4.6 mph - N/A   Clear
7:35 PM 37.4 °F 34.9 °F 21.2 °F 52% 30.23 in 10.0 mi NNW 3.5 mph - N/A   Clear
7:54 PM 39.2 °F 35.9 °F 21.2 °F 49% 30.23 in 10.0 mi NNW 4.6 mph - N/A   Clear
7:55 PM 37.4 °F 33.8 °F 21.2 °F 52% 30.23 in 10.0 mi NNW 4.6 mph - N/A   Clear
8:14 PM 39.2 °F 35.9 °F 19.4 °F 45% 30.24 in 10.0 mi NNW 4.6 mph - N/A   Clear
8:15 PM 37.4 °F 33.8 °F 21.2 °F 52% 30.24 in 10.0 mi NNW 4.6 mph - N/A   Clear
8:34 PM 39.2 °F 35.0 °F 19.4 °F 45% 30.24 in 10.0 mi NNW 5.8 mph - N/A   Clear
8:35 PM 37.4 °F 32.8 °F 21.2 °F 52% 30.24 in 10.0 mi NNW 5.8 mph - N/A   Clear
8:54 PM 37.4 °F 34.9 °F 21.2 °F 52% 30.24 in 10.0 mi NW 3.5 mph - N/A   Clear
8:55 PM 37.4 °F 34.9 °F 21.2 °F 52% 30.24 in 10.0 mi NW 3.5 mph - N/A   Clear
9:14 PM 37.4 °F 34.9 °F 21.2 °F 52% 30.24 in 10.0 mi NW 3.5 mph - N/A   Clear
9:35 PM 37.4 °F 34.9 °F 21.2 °F 52% 30.24 in 10.0 mi NW 3.5 mph - N/A   Clear
9:56 PM 37.4 °F 33.8 °F 21.2 °F 52% 30.24 in 10.0 mi WNW 4.6 mph - N/A   Clear
10:16 PM 37.4 °F 33.8 °F 21.2 °F 52% 30.24 in 10.0 mi WNW 4.6 mph - N/A   Clear
10:36 PM 37.4 °F 33.8 °F 21.2 °F 52% 30.24 in 10.0 mi WNW 4.6 mph - N/A   Clear
10:55 PM 35.6 °F 32.8 °F 21.2 °F 56% 30.24 in 10.0 mi WNW 3.5 mph - N/A   Clear
11:15 PM 35.6 °F 32.8 °F 21.2 °F 56% 30.24 in 10.0 mi WNW 3.5 mph - N/A   Clear
11:54 PM 35.6 °F 32.8 °F 21.2 °F 56% 30.24 in 10.0 mi WNW 3.5 mph - N/A   Clear
11:55 PM 35.6 °F 32.8 °F 21.2 °F 56% 30.24 in 10.0 mi WNW 3.5 mph - N/A   Clear